Wind_Speed
37 35 32 29 26 23 23 20 20 29 26 22 18 20 14 10 9 10 11 7 7 8 10 10 13 13 15 15 14 15 16 10 5 10 15 16 18 18 17 14 12 10 12
39 37 32 27 26 22 20 17 22 25 24 22 22 19 15 10 10 9 9 8 9 11 14 15 16 16 18 19 19 20 16 12 7 8 14 18 20 20 17 18 17 12 14
35 35 31 26 25 16 12 13 22 24 29 27 20 16 11 9 7 8 9 11 13 14 13 16 17 18 19 16 17 19 21 16 16 12 10 16 20 25 24 24 23 20 21
32 31 30 24 13 14 21 19 18 15 20 23 18 8 7 7 7 10 12 13 15 14 13 13 12 13 14 13 13 14 14 18 16 15 12 11 14 19 22 23 24 19 21
29 26 24 20 17 20 26 24 20 17 15 24 16 10 9 9 10 12 11 14 14 14 14 15 12 11 12 12 12 9 10 10 12 13 11 9 12 12 17 17 19 18 10
27 26 23 18 21 29 30 29 24 20 22 22 17 15 14 12 12 12 13 13 12 12 13 14 14 13 13 10 9 9 9 8 7 9 9 10 10 12 13 12 13 9 6
30 28 25 23 29 34 34 29 24 27 24 20 19 17 13 15 14 13 12 12 12 11 8 9 9 9 12 13 12 10 8 9 8 8 11 14 15 15 15 16 13 10 11
29 29 26 25 29 36 36 27 25 25 24 22 19 16 16 17 16 14 12 11 10 9 7 5 4 7 8 13 16 14 13 12 13 12 12 16 16 17 16 16 13 13 15
28 29 25 25 32 36 30 26 26 28 24 21 18 17 17 18 17 13 11 10 7 5 3 2 2 5 8 12 17 18 19 18 17 17 17 18 18 17 19 18 17 12 11
28 30 28 31 35 32 29 29 29 26 24 20 17 17 21 21 15 12 10 6 6 3 6 7 7 7 11 14 19 21 22 22 19 18 17 15 17 16 14 15 17 16 16
28 28 32 31 32 31 30 29 28 26 22 18 15 17 19 19 17 12 9 5 10 5 4 1 2 5 12 17 17 19 21 20 17 16 16 16 15 9 16 19 18 17 20
32 30 29 29 28 28 29 30 28 26 24 20 20 21 19 18 15 13 10 6 6 4 2 1 4 9 15 14 14 19 17 13 9 11 13 13 15 18 16 15 14 15 16
33 32 31 29 28 28 30 29 27 26 25 23 22 22 21 18 15 12 10 9 6 3 2 4 8 13 16 15 16 16 7 8 8 9 12 14 14 15 17 20 18 18 20
29 29 31 29 29 27 28 28 27 26 23 23 21 21 20 19 17 15 14 12 9 6 6 8 11 15 17 13 14 5 7 8 8 10 12 13 16 19 18 19 20 21 17
29 29 28 30 28 27 30 28 26 24 22 25 24 23 21 19 20 18 17 14 10 8 8 10 13 17 14 12 9 6 7 9 10 12 12 15 14 14 17 20 20 19 17
28 29 29 27 30 31 28 24 22 19 19 17 16 19 21 18 15 17 17 13 11 10 11 11 13 12 12 7 5 8 9 8 10 11 11 8 10 14 17 20 19 18 18
24 25 31 29 32 32 30 28 23 18 19 17 17 18 20 18 17 18 16 16 14 13 13 12 10 11 14 10 6 9 8 8 9 10 7 6 9 14 20 20 17 16 17
31 33 30 27 34 31 29 27 24 23 20 18 16 17 15 16 17 15 14 13 13 13 13 13 11 10 10 7 9 7 6 7 8 9 5 8 12 19 25 19 18 19 20
34 31 29 30 31 30 26 25 28 26 24 23 22 19 18 17 15 13 13 16 16 15 15 15 14 14 12 10 7 6 7 8 8 9 7 11 16 22 22 18 20 20 18
29 30 28 28 27 24 23 24 25 24 22 23 23 23 21 19 18 18 19 18 18 18 18 17 17 14 12 10 8 7 8 9 10 10 10 14 19 22 18 19 20 19 19
29 30 28 27 27 26 23 26 22 21 21 20 21 21 23 23 21 19 19 18 19 19 20 18 17 14 13 11 9 9 9 11 12 11 13 17 23 21 20 19 19 19 19
28 26 25 25 24 22 24 24 24 25 22 21 20 21 23 24 23 23 22 19 17 14 13 16 16 15 14 13 10 9 10 11 12 12 15 20 22 21 19 19 20 19 18
27 24 20 19 23 23 24 22 21 25 21 22 23 24 25 23 21 23 20 16 15 13 12 14 15 15 13 12 11 11 11 12 11 13 18 22 21 19 19 20 18 18 21
24 22 21 22 21 20 20 19 16 17 18 15 11 8 12 21 20 16 13 14 12 11 12 16 16 14 12 11 11 11 11 9 11 15 19 20 18 18 18 15 17 21 23
19 21 21 19 18 19 20 19 18 13 11 15 15 14 15 18 19 17 15 12 12 13 12 16 16 14 12 12 11 11 9 10 14 18 20 18 18 17 14 14 19 21 22
16 14 20 20 20 22 22 17 15 14 14 14 16 17 19 21 22 18 15 13 12 12 13 15 14 15 14 11 10 8 9 13 16 19 18 17 17 15 12 16 18 20 21
Wind_Direction
200 202 203 206 208 205 206 203 198 189 178 173 169 163 153 139 136 135 124 109 90 79 63 70 79 77 72 67 66 70 66 70 88 56 50 27 21 15 10 14 17 21 32
200 200 200 201 201 196 196 186 183 178 176 171 165 153 139 125 138 135 122 104 93 79 83 83 85 79 76 68 67 65 61 62 80 60 34 33 40 33 38 39 32 39 59
198 196 196 198 200 176 133 184 184 188 179 159 138 122 127 127 137 128 123 113 100 93 88 83 81 81 75 66 61 61 57 64 65 61 46 40 40 35 40 42 52 64 52
196 192 192 191 195 157 188 171 185 176 63 93 97 113 127 134 137 140 128 124 111 94 98 96 88 79 73 64 60 57 55 55 56 53 48 38 28 23 29 25 30 43 42
189 185 186 190 173 176 194 183 180 193 163 150 164 174 150 164 148 142 137 135 123 106 93 91 85 82 76 63 52 49 47 42 37 33 29 15 13 7 11 13 15 19 26
181 182 183 172 168 177 178 174 161 165 161 165 172 167 156 158 147 147 146 140 141 135 109 96 88 80 73 61 48 34 28 19 10 8 10 1 349 343 344 346 354 355 334
181 183 175 157 156 163 163 161 159 163 165 162 166 164 160 155 156 154 155 152 150 151 137 110 92 65 50 38 29 35 32 21 1 334 333 345 328 335 324 319 320 315 309
175 176 167 158 157 159 160 158 158 164 164 164 162 165 160 157 159 153 149 151 151 154 149 129 72 38 23 17 17 16 14 6 3 356 342 340 333 329 323 323 305 287 292
161 167 166 161 157 161 163 162 166 167 165 165 168 164 160 153 161 159 163 162 161 153 181 207 329 337 341 354 357 350 343 347 346 345 341 335 336 334 334 325 301 261 272
154 163 169 161 160 164 167 166 169 171 166 167 163 167 164 160 162 168 176 195 193 235 224 233 256 298 328 334 332 333 332 338 333 333 334 331 332 334 331 318 301 275 269
163 161 159 163 165 170 168 168 169 167 163 161 159 166 171 171 168 177 176 172 170 166 144 108 19 341 336 334 331 328 334 338 330 326 327 328 332 343 341 330 318 299 274
163 160 160 165 166 166 168 167 169 165 159 162 161 167 178 186 187 185 185 177 182 162 101 64 342 333 329 329 333 346 342 336 340 339 334 339 341 335 333 338 341 331 321
151 156 160 163 164 168 166 165 168 169 166 166 171 175 183 190 191 192 196 201 205 223 284 310 315 327 340 342 347 351 16 9 358 351 344 337 338 342 338 332 328 326 322
151 146 156 161 160 163 171 172 172 173 171 176 182 186 189 193 195 195 199 202 208 239 277 289 313 333 337 350 356 19 15 7 357 346 341 338 344 347 357 5 4 359 354
144 153 157 160 157 159 171 177 181 183 187 190 194 192 192 200 201 193 199 206 221 247 281 304 322 330 337 341 347 335 340 343 351 349 346 345 357 8 2 358 359 357 351
158 159 155 156 163 170 170 170 180 188 203 209 207 201 207 219 211 209 215 214 238 250 275 288 308 327 319 322 293 313 325 334 346 347 343 360 6 4 357 347 343 339 338
165 154 157 165 170 170 172 172 177 193 213 206 210 219 225 244 220 218 218 220 222 243 253 271 295 312 323 320 322 314 310 332 335 335 340 347 356 355 351 343 338 339 336
162 166 169 170 175 178 180 179 178 168 167 176 187 188 186 192 187 190 198 210 229 243 257 275 284 304 307 283 297 291 299 315 320 326 316 334 345 345 342 340 336 332 326
170 171 171 177 179 181 181 183 186 179 173 173 179 186 195 195 201 209 218 230 241 252 261 269 282 277 264 262 271 270 287 314 316 327 314 329 337 340 338 335 332 331 328
171 174 173 175 178 179 182 187 189 190 192 197 201 209 206 204 212 219 228 237 249 258 269 278 281 272 249 258 267 275 308 317 320 322 313 325 332 336 334 331 330 328 325
177 178 180 181 184 186 187 191 190 192 195 194 201 203 205 208 217 229 239 249 261 269 270 264 268 258 240 258 279 283 311 315 312 306 314 326 332 332 332 328 327 324 321
174 174 178 184 189 193 194 195 200 204 207 208 221 227 229 231 237 243 250 256 255 243 243 255 261 237 254 263 279 284 308 313 307 300 317 327 330 330 330 327 326 326 325
176 173 176 190 190 191 192 193 197 203 223 226 232 237 235 235 243 241 241 247 228 241 254 249 230 247 253 263 281 290 305 315 309 314 324 329 329 329 329 327 327 326 327
175 179 180 177 185 192 197 203 212 210 215 227 233 226 230 225 217 227 218 217 235 250 264 230 245 256 257 269 268 284 295 307 316 322 327 328 327 327 326 325 327 327 327
180 181 186 197 195 205 220 214 208 216 235 216 216 214 216 203 194 205 218 220 245 262 257 242 254 252 264 257 270 288 300 311 321 327 329 328 327 325 322 324 330 331 330
193 204 218 214 215 204 199 208 216 228 234 241 229 211 203 203 206 211 217 229 244 251 247 254 251 264 253 255 276 289 306 315 323 326 327 327 325 326 322 326 330 330 332
Height
769 775 779 782 788 792 795 798 802 806 809 813 815 817 820 822 824 824 826 826 825 824 823 822 821 821 820 819 819 817 816 816 817 818 817 814 810 807 804 802 800 799 798
762 769 775 780 785 789 794 800 803 808 810 812 814 815 818 821 824 824 826 825 826 826 825 824 823 823 822 822 821 819 818 817 817 818 818 815 813 810 806 803 801 799 798
761 765 771 779 783 786 796 805 807 808 802 804 811 815 820 819 823 824 826 826 827 828 829 828 827 824 825 826 825 823 821 820 819 819 819 818 815 811 807 805 802 801 800
759 765 770 778 787 792 797 798 802 807 795 791 808 815 817 820 824 825 825 828 829 830 830 830 830 828 826 827 826 825 825 823 821 820 820 819 817 816 812 808 805 803 802
759 766 772 780 782 786 795 798 802 802 804 805 810 815 816 821 825 826 827 829 830 832 833 831 832 831 828 828 827 827 826 824 824 823 821 820 819 817 815 812 809 807 805
758 763 770 774 779 787 789 795 798 801 803 806 810 814 820 823 825 825 828 829 831 834 834 833 832 833 829 829 828 828 826 824 824 823 822 820 818 817 815 812 811 809 807
756 760 767 772 776 783 790 794 796 800 805 808 812 816 819 822 825 826 828 830 832 834 835 833 834 833 830 830 829 827 826 825 824 823 821 821 818 815 814 811 809 808 807
753 758 763 769 775 781 787 791 795 801 805 809 812 816 819 822 825 826 829 832 833 834 835 834 833 831 831 829 827 827 825 826 824 822 820 819 817 814 811 809 806 806 804
751 757 763 767 775 782 786 790 795 801 804 808 810 814 818 823 825 827 829 831 833 834 835 834 832 832 832 830 827 827 825 824 823 821 818 816 814 811 808 806 804 803 800
750 755 760 765 771 780 784 789 794 799 803 808 811 813 816 821 826 828 830 832 832 832 832 832 831 831 832 831 828 826 823 821 819 817 815 813 811 808 805 803 801 799 796
751 757 762 768 771 777 784 789 794 798 803 808 811 816 819 820 822 828 830 830 830 830 830 830 831 830 829 828 826 824 820 817 815 814 812 810 808 805 803 801 798 795 793
747 754 764 769 774 778 783 789 795 798 803 808 809 814 819 822 823 825 828 829 831 829 829 830 829 829 828 826 824 821 817 814 813 812 810 808 805 803 800 797 794 792 789
747 754 761 769 774 778 783 787 794 797 800 804 809 812 816 820 821 824 826 828 829 828 828 828 828 827 825 823 821 818 815 814 812 811 808 806 803 801 798 795 791 788 784
748 753 759 767 772 779 784 789 792 796 800 805 809 812 815 816 818 821 824 825 826 826 827 827 827 825 823 821 819 817 816 814 812 810 807 804 801 798 795 791 787 784 780
748 752 759 765 772 776 781 786 789 792 795 800 804 808 812 815 815 818 821 822 823 825 825 824 823 821 819 818 817 816 814 812 809 807 804 801 798 795 792 790 787 783 780
748 751 755 764 769 774 779 784 787 790 795 798 803 806 811 813 814 816 818 820 822 823 822 821 820 818 817 814 814 814 812 809 806 804 802 799 797 794 792 789 786 782 778
748 749 756 764 766 771 777 781 785 789 794 797 801 804 807 809 810 812 814 817 820 820 819 819 817 816 815 814 813 811 809 807 804 802 800 798 796 793 790 785 782 779 776
743 749 756 762 764 771 776 780 784 786 790 795 799 802 805 807 809 810 812 814 815 815 814 814 814 813 812 811 810 808 806 805 803 800 798 795 793 790 785 781 779 776 773
743 749 756 760 765 771 775 779 783 787 790 793 797 800 803 806 808 809 810 811 811 811 811 810 810 808 807 807 806 805 804 802 800 797 795 792 790 786 782 779 776 773 770
745 750 755 760 766 771 775 779 783 786 788 790 793 796 799 803 803 802 804 806 807 806 806 806 805 804 804 803 802 802 801 798 796 794 792 789 786 782 778 775 772 769 767
746 750 756 761 766 769 773 777 780 784 785 786 789 792 795 797 798 799 800 802 802 801 801 800 800 800 800 800 799 798 797 795 793 791 788 785 781 777 774 771 768 766 764
749 753 756 760 765 768 771 774 778 781 782 784 787 790 792 794 795 796 797 798 797 797 796 796 797 797 797 796 795 794 793 791 789 787 785 781 777 773 769 767 764 762 760
748 751 755 759 763 766 770 772 775 778 779 781 784 784 785 787 789 791 793 794 795 794 793 793 792 793 792 792 791 791 789 787 785 784 781 776 772 769 766 764 762 759 757
747 750 753 758 761 765 767 769 771 774 777 779 779 778 779 781 785 790 790 791 792 791 790 789 789 788 788 788 788 787 786 783 781 780 776 772 769 766 764 761 759 757 753
746 750 754 757 759 763 766 767 769 771 773 774 775 775 777 780 784 786 788 788 788 787 786 786 785 785 784 784 784 783 782 780 778 775 772 768 765 763 761 759 756 752 749
747 750 754 756 758 760 762 764 766 767 769 770 772 772 774 777 781 783 784 785 785 784 783 782 782 781 780 780 780 779 778 777 775 771 767 765 762 759 757 755 752 749 744